Location: Neuvy Saint Sepulchre
(46.5953°N, 1.8122°E)
Time: 09:39:19
(UTC+02:00)

ISS - Pass Details

Date: 16 July 2021
Orbit: 419 x 421 km, 51.6° (Epoch: 04 August)

Event Time Altitude Azimuth Distance (km) Brightness Sun altitude
Rises 05:21:17 0° 287° (WNW) 2,369 -0.2 -8.2°
Reaches altitude 10° 05:23:54 10° 266° (W) 1,500 -1.4 -7.8°
Maximum altitude 05:26:07 17° 224° (SW) 1,157 -2.2 -7.5°
Drops below altitude 10° 05:28:20 10° 183° (S) 1,492 -1.4 -7.3°
Sets 05:30:56 0° 162° (SSE) 2,351 -0.2 -6.9°
